Location: *
(41.7492°S, 135.4150°W)
Time: 03:11:33
(UTC+00:00)

ITAMSAT 1 - Pass Details

Date: 04 July 2022
Orbit: 784 x 795 km, 98.9° (Epoch: 09 August)

Event Time Altitude Azimuth Distance (km) Brightness Sun altitude
Rises 15:25:12 0° 34° (NE) 3,293 11.8 -11.6°
Reaches altitude 10° 15:27:36 10° 40° (NE) 2,370 11.2 -11.2°
Maximum altitude 15:32:33 45° 111° (ESE) 1,094 8.8 -10.3°
Drops below altitude 10° 15:37:33 10° 181° (S) 2,392 9.9 -9.5°
Sets 15:39:58 0° 187° (S) 3,327 10.6 -9.1°
